When you browse on this site, cookies collect data to enhance your experience and personalize the content and advertising you see.
Visit our Privacy Policy to learn more. By continuing to use the site, you agree to this use of cookies and data.
  • In Latvia
  • List of Countries
  • For 7 days
  • Water Temperature
  • Satellite Maps
  • Weather Map
  • Weather Widgets
  • user-avatar
    Login

    Hourly Weather Bregenz

    Today, 24 May, Friday

    Time Temperature Precipitation Wind Pressure Humidity
    00:00 +6°C° 0 mm 1 mps 645 mmHg 91%
    01:00 +5°C° 0 mm 2 mps 645 mmHg 86%
    02:00 +5°C° 0 mm 2 mps 645 mmHg 86%
    03:00 +4°C° 0 mm 2 mps 645 mmHg 86%
    04:00 +4°C° 0 mm 2 mps 645 mmHg 85%
    05:00 +6°C° 0 mm 1 mps 645 mmHg 80%
    06:00 +8°C° 0 mm 1 mps 645 mmHg 74%
    07:00 +9°C° 0 mm 1 mps 646 mmHg 69%
    08:00 +11°C° 0 mm 1 mps 646 mmHg 62%
    09:00 +13°C° 0 mm 1 mps 646 mmHg 56%
    10:00 +15°C° 0 mm 1 mps 647 mmHg 49%
    11:00 +16°C° 0 mm 1 mps 647 mmHg 47%
    12:00 +16°C° 0 mm 2 mps 647 mmHg 46%
    13:00 +17°C° 0 mm 2 mps 647 mmHg 44%
    14:00 +17°C° 0 mm 2 mps 647 mmHg 46%
    15:00 +16°C° 0 mm 2 mps 646 mmHg 48%
    16:00 +16°C° 0 mm 2 mps 646 mmHg 49%
    17:00 +15°C° 0 mm 2 mps 646 mmHg 58%
    18:00 +14°C° 0 mm 1 mps 645 mmHg 67%
    19:00 +12°C° 0 mm 1 mps 645 mmHg 75%
    20:00 +11°C° 0 mm 1 mps 645 mmHg 79%
    21:00 +9°C° 0 mm 1 mps 644 mmHg 83%
    22:00 +8°C° 0 mm 1 mps 644 mmHg 86%
    23:00 +7°C° 0 mm 1 mps 644 mmHg 86%

    Tomorrow, 25 May, Saturday

    Time Temperature Precipitation Wind Pressure Humidity
    00:00 +7°C° 0 mm 1 mps 644 mmHg 86%
    01:00 +6°C° 0 mm 1 mps 644 mmHg 85%
    02:00 +6°C° 0 mm 1 mps 644 mmHg 84%
    03:00 +6°C° 0 mm 1 mps 644 mmHg 84%
    04:00 +6°C° 0 mm 1 mps 644 mmHg 83%
    05:00 +7°C° 0 mm 1 mps 644 mmHg 80%
    06:00 +7°C° 0 mm 0 mps 644 mmHg 77%
    07:00 +9°C° 0 mm 0 mps 645 mmHg 74%
    08:00 +10°C° 0 mm 0 mps 645 mmHg 72%
    09:00 +12°C° 0 mm 1 mps 646 mmHg 70%
    10:00 +13°C° 0 mm 1 mps 646 mmHg 68%
    11:00 +14°C° 0.3 mm 1 mps 646 mmHg 67%
    12:00 +14°C° 0.3 mm 1 mps 646 mmHg 67%
    13:00 +15°C° 0.3 mm 2 mps 646 mmHg 67%
    14:00 +13°C° 0.9 mm 2 mps 646 mmHg 75%
    15:00 +12°C° 0.9 mm 1 mps 646 mmHg 84%
    16:00 +10°C° 0.9 mm 1 mps 645 mmHg 93%
    17:00 +10°C° 0.8 mm 1 mps 645 mmHg 94%
    18:00 +9°C° 0.8 mm 1 mps 645 mmHg 96%
    19:00 +9°C° 0.8 mm 1 mps 645 mmHg 97%
    20:00 +8°C° 0.7 mm 1 mps 645 mmHg 97%
    21:00 +8°C° 0.7 mm 1 mps 645 mmHg 97%
    22:00 +7°C° 0.7 mm 1 mps 646 mmHg 97%
    23:00 +7°C° 0.4 mm 1 mps 645 mmHg 97%

    Day after tomorrow, 26 May, Sunday

    Time Temperature Precipitation Wind Pressure Humidity
    00:00 +7°C° 0.4 mm 1 mps 645 mmHg 97%
    01:00 +6°C° 0.4 mm 1 mps 645 mmHg 97%
    02:00 +6°C° 0.1 mm 1 mps 645 mmHg 97%
    03:00 +6°C° 0.1 mm 1 mps 645 mmHg 96%
    04:00 +5°C° 0.1 mm 1 mps 645 mmHg 96%
    05:00 +6°C° 0 mm 1 mps 645 mmHg 94%
    06:00 +6°C° 0 mm 0 mps 645 mmHg 92%
    07:00 +7°C° 0 mm 0 mps 646 mmHg 90%
    08:00 +9°C° 0 mm 0 mps 646 mmHg 83%
    09:00 +11°C° 0 mm 1 mps 646 mmHg 77%
    10:00 +12°C° 0 mm 1 mps 646 mmHg 71%
    11:00 +13°C° 0.1 mm 1 mps 647 mmHg 68%
    12:00 +14°C° 0.1 mm 1 mps 647 mmHg 65%
    13:00 +15°C° 0.1 mm 1 mps 647 mmHg 62%
    14:00 +15°C° 0 mm 1 mps 647 mmHg 63%
    15:00 +15°C° 0 mm 1 mps 647 mmHg 63%
    16:00 +15°C° 0 mm 2 mps 646 mmHg 63%
    17:00 +14°C° 0.1 mm 1 mps 646 mmHg 69%
    18:00 +13°C° 0.1 mm 1 mps 646 mmHg 75%
    19:00 +11°C° 0.1 mm 0 mps 646 mmHg 81%
    20:00 +10°C° 0.1 mm 0 mps 646 mmHg 84%
    21:00 +10°C° 0.1 mm 1 mps 645 mmHg 87%
    22:00 +8°C° 0.1 mm 1 mps 645 mmHg 90%
    23:00 +8°C° 0 mm 1 mps 645 mmHg 92%

    27 May, Monday

    Time Temperature Precipitation Wind Pressure Humidity
    00:00 +8°C° 0 mm 1 mps 645 mmHg 93%
    01:00 +7°C° 0 mm 1 mps 645 mmHg 94%
    02:00 +7°C° 0 mm 1 mps 644 mmHg 94%
    03:00 +7°C° 0 mm 1 mps 644 mmHg 94%
    04:00 +7°C° 0 mm 1 mps 644 mmHg 94%
    05:00 +8°C° 0 mm 1 mps 644 mmHg 91%
    06:00 +8°C° 0 mm 0 mps 645 mmHg 89%
    07:00 +9°C° 0 mm 0 mps 645 mmHg 86%
    08:00 +11°C° 0.1 mm 1 mps 645 mmHg 84%
    09:00 +12°C° 0.1 mm 1 mps 645 mmHg 83%
    10:00 +12°C° 0.1 mm 1 mps 645 mmHg 81%
    11:00 +13°C° 0.1 mm 1 mps 645 mmHg 75%
    12:00 +14°C° 0.1 mm 1 mps 645 mmHg 70%
    13:00 +16°C° 0.1 mm 1 mps 645 mmHg 64%
    14:00 +16°C° 0.1 mm 1 mps 645 mmHg 63%
    15:00 +16°C° 0.1 mm 1 mps 645 mmHg 62%
    16:00 +16°C° 0.1 mm 2 mps 644 mmHg 61%
    17:00 +15°C° 0.4 mm 1 mps 644 mmHg 71%
    18:00 +13°C° 0.4 mm 1 mps 644 mmHg 81%
    19:00 +12°C° 0.4 mm 1 mps 643 mmHg 90%
    20:00 +11°C° 0.5 mm 1 mps 643 mmHg 92%
    21:00 +10°C° 0.5 mm 1 mps 643 mmHg 94%
    22:00 +8°C° 0.5 mm 0 mps 642 mmHg 95%
    23:00 +8°C° 0.2 mm 0 mps 642 mmHg 96%

    28 May, Tuesday

    Time Temperature Precipitation Wind Pressure Humidity
    00:00 +8°C° 0.2 mm 0 mps 641 mmHg 97%
    01:00 +7°C° 0.2 mm 0 mps 641 mmHg 97%
    02:00 +7°C° 0.6 mm 0 mps 641 mmHg 98%
    03:00 +7°C° 0.6 mm 0 mps 640 mmHg 98%
    04:00 +7°C° 0.6 mm 0 mps 640 mmHg 98%
    05:00 +8°C° 1.5 mm 0 mps 640 mmHg 98%
    06:00 +9°C° 1.5 mm 1 mps 640 mmHg 98%
    07:00 +9°C° 1.5 mm 1 mps 639 mmHg 98%
    08:00 +9°C° 1.2 mm 1 mps 639 mmHg 97%
    09:00 +7°C° 1.2 mm 2 mps 639 mmHg 97%
    10:00 +7°C° 1.2 mm 2 mps 639 mmHg 96%
    11:00 +7°C° 0.6 mm 2 mps 639 mmHg 95%
    12:00 +8°C° 0.6 mm 1 mps 639 mmHg 94%
    13:00 +8°C° 0.6 mm 1 mps 639 mmHg 93%
    14:00 +8°C° 1.4 mm 1 mps 639 mmHg 94%
    15:00 +8°C° 1.4 mm 1 mps 639 mmHg 95%
    16:00 +7°C° 1.4 mm 1 mps 639 mmHg 96%
    17:00 +7°C° 1.3 mm 1 mps 639 mmHg 96%
    18:00 +7°C° 1.3 mm 1 mps 639 mmHg 96%
    19:00 +6°C° 1.3 mm 1 mps 639 mmHg 97%
    20:00 +6°C° 1.4 mm 1 mps 639 mmHg 97%
    21:00 +5°C° 1.4 mm 1 mps 639 mmHg 97%
    22:00 +5°C° 1.4 mm 1 mps 639 mmHg 97%
    23:00 +5°C° 1.3 mm 1 mps 639 mmHg 97%

    29 May, Wednesday

    Time Temperature Precipitation Wind Pressure Humidity
    00:00 +4°C° 1.3 mm 1 mps 639 mmHg 97%
    01:00 +4°C° 1.3 mm 1 mps 639 mmHg 97%
    02:00 +4°C° 1.3 mm 1 mps 639 mmHg 97%
    03:00 +4°C° 1.3 mm 1 mps 639 mmHg 98%
    04:00 +4°C° 1.3 mm 1 mps 639 mmHg 98%
    05:00 +4°C° 1.9 mm 1 mps 640 mmHg 98%
    06:00 +4°C° 1.9 mm 1 mps 640 mmHg 98%
    07:00 +4°C° 1.9 mm 1 mps 640 mmHg 98%
    08:00 +4°C° 2.1 mm 1 mps 641 mmHg 98%
    09:00 +4°C° 2.1 mm 1 mps 641 mmHg 98%
    10:00 +4°C° 2.1 mm 1 mps 642 mmHg 98%
    11:00 +4°C° 1.3 mm 1 mps 642 mmHg 97%
    12:00 +5°C° 1.3 mm 1 mps 642 mmHg 96%
    13:00 +4°C° 1.3 mm 2 mps 643 mmHg 95%
    14:00 +5°C° 0.6 mm 1 mps 643 mmHg 94%
    15:00 +6°C° 0.6 mm 1 mps 643 mmHg 93%
    16:00 +6°C° 0.6 mm 1 mps 644 mmHg 92%
    17:00 +6°C° 0.5 mm 1 mps 644 mmHg 93%
    18:00 +6°C° 0.5 mm 1 mps 644 mmHg 94%
    19:00 +5°C° 0.5 mm 1 mps 645 mmHg 95%
    20:00 +5°C° 0.8 mm 1 mps 645 mmHg 96%
    21:00 +5°C° 0.8 mm 1 mps 646 mmHg 96%
    22:00 +4°C° 0.8 mm 1 mps 646 mmHg 97%
    23:00 +4°C° 0.5 mm 1 mps 647 mmHg 97%
    Show more